[Date Prev][Date Next][Thread Prev][Thread Next] - [Date Index][Thread Index][Author Index]
2 Line ISS Keps 9-30
- Subject: [sarex] 2 Line ISS Keps 9-30
- From: "Dave Larsen PhD" <doc@xxxxxxxxxxx>
- Date: Tue, 30 Sep 2003 03:03:16 -0700
ISS
1 25544U 98067A 03273.17217593 .00022714 00000-0 25171-3 0 5722
2 25544 51.6317 211.2479 0005644 308.2190 257.0818 15.62858352277409
----
Via the sarex mailing list at AMSAT.ORG courtesy of AMSAT-NA.
To unsubscribe, send "unsubscribe sarex" to Majordomo@amsat.org
AMSAT Home